Waarnemingen

Advertentie
Mijn weer
Woensdrecht, Nederland (6340): temperatuur & dauwpunt: 13.10.2017 12:00:00 - 19.10.2017 12:00:00 (CEST)Woensdrecht, Nederland (6340): temperatuur 5cm: 13.10.2017 12:00:00 - 19.10.2017 12:00:00 (CEST)Woensdrecht, Nederland (6340): windsnelheid & windstoten: 13.10.2017 12:00:00 - 19.10.2017 12:00:00 (CEST)Woensdrecht, Nederland (6340): windrichting: 13.10.2017 12:00:00 - 19.10.2017 12:00:00 (CEST)Woensdrecht, Nederland (6340): luchtdruk: 13.10.2017 12:00:00 - 19.10.2017 12:00:00 (CEST)Woensdrecht, Nederland (6340): zicht: 13.10.2017 12:00:00 - 19.10.2017 12:00:00 (CEST)
Datum & Tijd tt [°C] td [°C] tt 5cm [°C] ff [km/u] ff [kn] fx [km/u] fx [kn] dd ppp [hPa] vv [km]
19.10.2017 12:00:00 18,4 13,1 19,2 8 4 22 12 ZO 1009,6 10
19.10.2017 11:00:00 16,2 12,8 15,7 5 3 11 6 OZO 1010,2 10
19.10.2017 10:00:00 13,8 12,1 13,4 5 3 14 8 OZO 1010,4 10
19.10.2017 09:00:00 12,5 11,4 11,4 5 3 14 8 ZO 1010,4 10
19.10.2017 08:00:00 12,1 11,7 11,2 4 2 11 6 OZO 1010,1 8
19.10.2017 07:00:00 10,2 10,2 9,5 5 3 7 4 O 1010,3 6
19.10.2017 06:00:00 11,7 11,7 10,7 5 3 7 4 ONO 1010,6 4,9
19.10.2017 05:00:00 10,0 10,0 8,8 2 1 7 4 - 1011,1 6
19.10.2017 04:00:00 9,9 9,9 8,9 4 2 4 2 ONO 1011,4 6
19.10.2017 03:00:00 10,2 10,2 8,3 4 2 7 4 O 1011,8 3,0
19.10.2017 02:00:00 11,2 11,2 8,5 0 0 7 4 N 1011,8 0,9
19.10.2017 01:00:00 11,3 11,3 9,0 4 2 7 4 - 1012,0 1,6
19.10.2017 00:00:00 11,8 11,8 9,8 4 2 7 4 - 1012,0 6
18.10.2017 23:00:00 12,7 12,7 10,6 0 0 7 4 N 1012,2 8
18.10.2017 22:00:00 13,1 13,1 12,0 0 0 4 2 N 1012,0 7
18.10.2017 21:00:00 12,9 12,5 11,2 2 1 4 2 NO 1012,1 8
18.10.2017 20:00:00 13,8 13,4 11,8 2 1 4 2 NO 1012,0 9
18.10.2017 19:00:00 15,1 14,4 13,5 2 1 4 2 NO 1011,8 10
18.10.2017 18:00:00 18,4 14,9 18,4 4 2 14 8 - 1011,8 10
18.10.2017 17:00:00 19,6 14,2 19,4 8 4 14 8 ZW 1011,7 10
18.10.2017 16:00:00 20,2 14,0 21,2 9 5 14 8 ZZW 1011,7 10
18.10.2017 15:00:00 19,8 13,5 21,2 5 3 14 8 Z 1012,0 10
18.10.2017 14:00:00 19,4 13,6 20,5 8 4 14 8 - 1012,5 10
18.10.2017 13:00:00 17,3 12,9 18,8 8 4 - - ZZW 1012,9 10
18.10.2017 12:00:00 15,0 12,9 15,7 4 2 11 6 - 1013,1 5
18.10.2017 11:00:00 13,3 12,7 13,5 8 4 11 6 ZZO 1013,4 4,4
18.10.2017 10:00:00 12,5 12,0 12,8 5 3 - - OZO 1013,4 4,2
18.10.2017 09:00:00 12,3 11,7 11,7 9 5 14 8 O 1013,4 7
18.10.2017 08:00:00 11,8 11,1 10,9 8 4 18 10 O 1013,5 7
18.10.2017 07:00:00 11,9 10,8 11,1 15 8 22 12 O 1013,5 10
18.10.2017 06:00:00 11,0 10,2 10,5 13 7 22 12 ONO 1014,2 9
18.10.2017 05:00:00 12,7 11,2 12,4 15 8 22 12 ONO 1014,7 10
18.10.2017 04:00:00 13,1 11,7 12,5 13 7 18 10 ONO 1015,3 10
18.10.2017 03:00:00 13,0 11,8 12,9 11 6 14 8 ONO 1015,7 10
18.10.2017 02:00:00 12,9 11,7 12,7 5 3 11 6 NO 1016,2 10
18.10.2017 01:00:00 12,3 11,6 11,7 8 4 11 6 NO 1016,8 10
18.10.2017 00:00:00 12,9 11,2 12,3 8 4 14 8 O 1017,0 10
17.10.2017 23:00:00 12,1 11,1 11,8 5 3 7 4 O 1017,7 10
17.10.2017 22:00:00 12,5 11,9 12,1 5 3 7 4 ONO 1017,9 10
17.10.2017 21:00:00 11,5 11,1 11,0 4 2 7 4 O 1018,5 10
17.10.2017 20:00:00 11,6 11,3 10,9 2 1 11 6 - 1019,0 10
17.10.2017 19:00:00 12,2 11,3 10,7 4 2 4 2 - 1018,9 10
17.10.2017 18:00:00 14,6 11,6 14,5 4 2 7 4 - 1019,0 10
17.10.2017 17:00:00 15,4 11,2 15,7 5 3 11 6 WNW 1019,7 10
17.10.2017 16:00:00 15,5 11,5 15,7 11 6 18 10 W 1020,2 10
17.10.2017 15:00:00 15,6 11,3 16,0 9 5 22 12 ZW 1020,8 10
17.10.2017 14:00:00 15,3 11,6 15,5 15 8 22 12 WZW 1021,5 10
17.10.2017 13:00:00 15,5 12,4 15,4 13 7 22 12 ZW 1022,1 10
17.10.2017 12:00:00 15,1 11,7 15,2 13 7 22 12 ZW 1021,8 10
17.10.2017 11:00:00 14,6 11,7 14,6 15 8 22 12 ZW 1022,0 10
17.10.2017 10:00:00 14,2 11,5 13,9 13 7 22 12 ZW 1022,1 10
17.10.2017 09:00:00 13,8 11,3 13,0 11 6 18 10 ZZW 1021,8 10
17.10.2017 08:00:00 13,5 10,8 12,7 9 5 18 10 ZZW 1021,7 10
17.10.2017 07:00:00 13,5 10,9 12,6 9 5 18 10 ZZW 1021,5 10
17.10.2017 06:00:00 13,8 11,2 13,0 11 6 18 10 ZZW 1021,4 10
17.10.2017 05:00:00 14,5 11,2 13,5 11 6 18 10 ZW 1021,4 10
17.10.2017 04:00:00 15,0 11,6 14,4 15 8 22 12 WZW 1021,4 10
17.10.2017 03:00:00 14,7 13,0 12,8 13 7 14 8 WZW 1021,4 10
17.10.2017 02:00:00 14,7 13,4 13,9 13 7 14 8 WZW 1020,9 10
17.10.2017 01:00:00 15,1 13,7 14,4 9 5 18 10 WZW 1020,6 10
17.10.2017 00:00:00 18,0 14,5 17,4 11 6 25 14 ZW 1020,2 10
16.10.2017 23:00:00 19,5 14,7 18,7 13 7 25 14 ZW 1020,0 10
16.10.2017 22:00:00 20,2 14,3 19,4 13 7 25 14 ZZW 1019,4 10
16.10.2017 21:00:00 21,0 14,0 20,1 13 7 29 16 ZZW 1019,3 10
16.10.2017 20:00:00 22,0 14,0 21,1 15 8 29 16 ZZW 1019,1 10
16.10.2017 19:00:00 22,7 13,8 21,5 11 6 32 18 Z 1018,5 10
16.10.2017 18:00:00 23,3 15,9 22,0 8 4 22 12 ZZW 1018,5 10
16.10.2017 17:00:00 24,9 15,5 24,5 13 7 25 14 Z 1018,4 10
16.10.2017 16:00:00 25,3 16,0 25,6 11 6 25 14 Z 1018,8 10
16.10.2017 15:00:00 24,9 16,2 25,5 13 7 29 16 Z 1019,4 10
16.10.2017 14:00:00 23,9 16,1 24,7 13 7 25 14 Z 1019,9 10
16.10.2017 13:00:00 23,1 16,3 24,0 9 5 29 16 Z 1020,5 10
16.10.2017 12:00:00 21,1 15,6 21,4 16 9 29 16 Z 1020,8 10
16.10.2017 11:00:00 19,5 15,1 19,6 15 8 29 16 Z 1020,9 10
16.10.2017 10:00:00 18,9 14,9 18,7 9 5 22 12 ZZW 1020,6 10
16.10.2017 09:00:00 17,3 14,7 16,7 5 3 14 8 ZZW 1020,5 10
16.10.2017 08:00:00 18,1 14,8 17,5 13 7 22 12 Z 1019,9 10
16.10.2017 07:00:00 18,3 14,7 17,6 11 6 22 12 Z 1019,9 10
16.10.2017 06:00:00 18,6 14,9 17,9 15 8 25 14 Z 1019,5 10
16.10.2017 05:00:00 17,5 14,9 17,1 13 7 22 12 Z 1019,8 10
16.10.2017 04:00:00 17,2 14,9 16,8 8 4 14 8 Z 1020,2 10
16.10.2017 03:00:00 17,2 14,5 16,4 8 4 18 10 Z 1020,3 10
16.10.2017 02:00:00 17,2 14,4 16,5 9 5 22 12 Z 1020,4 10
16.10.2017 01:00:00 18,3 14,5 17,5 13 7 25 14 ZZW 1020,5 10
16.10.2017 00:00:00 18,4 14,4 17,5 13 7 25 14 ZZW 1020,7 10
15.10.2017 23:00:00 18,6 14,1 17,9 13 7 25 14 Z 1020,5 10
15.10.2017 22:00:00 19,3 14,0 18,2 13 7 25 14 ZZW 1020,3 10
15.10.2017 21:00:00 19,5 13,3 18,4 11 6 25 14 ZZW 1020,2 10
15.10.2017 20:00:00 20,2 12,5 18,8 13 7 25 14 Z 1020,0 10
15.10.2017 19:00:00 19,8 12,9 17,5 8 4 14 8 Z 1019,5 10
15.10.2017 18:00:00 22,0 12,6 21,3 9 5 22 12 Z 1019,5 10
15.10.2017 17:00:00 23,2 13,1 23,4 11 6 22 12 Z 1019,5 10
15.10.2017 16:00:00 23,2 12,3 23,7 13 7 25 14 Z 1020,2 10
15.10.2017 15:00:00 23,1 12,7 23,9 15 8 25 14 Z 1020,5 10
15.10.2017 14:00:00 22,0 13,9 23,0 11 6 22 12 Z 1020,9 10
15.10.2017 13:00:00 20,4 14,0 21,5 11 6 22 12 Z 1021,5 10
15.10.2017 12:00:00 18,5 13,9 19,4 9 5 22 12 ZZO 1021,8 10
15.10.2017 11:00:00 16,3 13,7 16,3 9 5 22 12 ZZO 1022,3 10
15.10.2017 10:00:00 13,8 12,6 13,6 8 4 11 6 ZZO 1022,7 10
15.10.2017 09:00:00 12,0 11,8 11,5 8 4 14 8 ZZO 1022,7 10
15.10.2017 08:00:00 11,7 11,6 10,9 5 3 14 8 ZO 1022,6 9
15.10.2017 07:00:00 11,7 11,7 9,2 8 4 11 6 ZO 1023,0 9
15.10.2017 06:00:00 12,1 12,1 11,1 8 4 11 6 ZZO 1023,2 8
15.10.2017 05:00:00 8,7 8,7 7,5 4 2 7 4 - 1023,6 4,5
15.10.2017 04:00:00 11,3 11,3 8,7 4 2 7 4 O 1023,8 0,5
15.10.2017 03:00:00 13,6 13,5 12,5 5 3 11 6 ZO 1023,9 6
15.10.2017 02:00:00 13,7 13,5 12,5 5 3 11 6 ZO 1024,3 7
15.10.2017 01:00:00 12,6 12,6 8,7 5 3 7 4 ZO 1024,7 6
15.10.2017 00:00:00 11,2 11,2 9,1 4 2 7 4 OZO 1024,8 4,9
14.10.2017 23:00:00 11,3 11,3 9,7 4 2 4 2 - 1025,1 1,9
14.10.2017 22:00:00 12,1 12,1 9,4 2 1 4 2 - 1025,7 7
14.10.2017 21:00:00 11,9 11,7 10,3 4 2 4 2 NO 1025,9 7
14.10.2017 20:00:00 14,1 14,1 12,2 0 0 7 4 N 1025,7 9
14.10.2017 19:00:00 15,4 15,0 14,2 0 0 7 4 N 1025,6 10
14.10.2017 18:00:00 19,1 15,5 18,8 5 3 11 6 ZW 1025,5 10
14.10.2017 17:00:00 19,6 15,6 19,6 11 6 25 14 WZW 1025,7 10
14.10.2017 16:00:00 20,7 15,5 21,1 15 8 25 14 WZW 1025,4 10
14.10.2017 15:00:00 20,1 15,5 20,1 15 8 25 14 ZW 1025,8 10
14.10.2017 14:00:00 19,4 15,1 20,6 13 7 25 14 ZZW 1026,1 10
14.10.2017 13:00:00 18,5 15,1 - 16 9 25 14 WZW 1026,8 10
14.10.2017 12:00:00 16,8 14,7 - 15 8 22 12 ZW 1027,0 10
14.10.2017 11:00:00 16,4 13,8 - 13 7 18 10 ZW 1026,8 10
14.10.2017 10:00:00 16,0 13,9 16,0 5 3 18 10 ZZW 1026,5 10
14.10.2017 09:00:00 14,0 13,1 12,6 5 3 11 6 WZW 1026,0 10
14.10.2017 08:00:00 14,0 13,0 13,1 9 5 14 8 ZZW 1025,8 10
14.10.2017 07:00:00 14,0 12,9 13,2 8 4 14 8 ZZW 1025,8 10
14.10.2017 06:00:00 13,7 12,8 12,9 8 4 14 8 ZZW 1025,6 10
14.10.2017 05:00:00 14,0 13,0 13,4 9 5 18 10 ZW 1025,6 10
14.10.2017 04:00:00 14,4 13,2 13,7 9 5 22 12 ZW 1025,3 10
14.10.2017 03:00:00 15,1 13,5 14,5 13 7 22 12 ZZW 1025,5 10
14.10.2017 02:00:00 15,1 13,5 14,3 11 6 18 10 ZZW 1025,3 10
14.10.2017 01:00:00 14,9 13,8 14,2 9 5 18 10 ZZW 1025,2 10
14.10.2017 00:00:00 15,4 14,0 14,8 13 7 22 12 ZW 1025,1 10
13.10.2017 23:00:00 16,1 14,1 15,3 11 6 22 12 ZW 1024,8 10
13.10.2017 22:00:00 16,9 14,1 16,3 13 7 29 16 ZW 1024,8 10
13.10.2017 21:00:00 17,8 14,3 17,3 16 9 29 16 ZW 1024,5 10
13.10.2017 20:00:00 17,6 14,0 17,0 11 6 25 14 ZZW 1024,4 10
13.10.2017 19:00:00 17,7 14,0 16,9 13 7 25 14 ZZW 1024,1 10
13.10.2017 18:00:00 17,6 14,0 17,1 13 7 32 18 ZW 1024,4 10
13.10.2017 17:00:00 18,1 14,2 18,0 21 11 32 18 ZW 1024,6 10
13.10.2017 16:00:00 18,2 14,1 18,2 18 10 32 18 ZW 1024,7 10
13.10.2017 15:00:00 18,6 14,4 18,9 16 9 36 19 ZW 1024,5 10
13.10.2017 14:00:00 18,4 14,1 18,3 22 12 36 19 WZW 1024,8 10
13.10.2017 13:00:00 18,6 14,7 18,8 22 12 32 18 ZW 1024,8 10
13.10.2017 12:00:00 17,9 15,2 17,9 21 11 25 14 ZW 1024,7 10

tt = temperatuur
td = dauwpunt
tt 5cm = temperatuur 5cm
ff = windsnelheid
fx = windstoten
dd = windrichting
ppp = luchtdruk
vv = zicht

Weerstations in de omgeving